Time,TemperatureF,DewpointF,PressureIn,WindDirection,WindDirectionDegrees,WindSpeedMPH,WindSpeedGustMPH,Humidity,HourlyPrecipIn,Conditions,Clouds,dailyrainin,SoftwareType,DateUTC
2013-06-03 00:03:00,69.1,64.7,0.00,North,0,0.0,0.0,86,0.00,,,0.00,WUHU21623XXSP,2013-06-03 04:03:00,
2013-06-03 00:08:00,69.1,64.7,0.00,North,0,0.0,0.0,86,0.00,,,0.00,WUHU21623XXSP,2013-06-03 04:08:00,
2013-06-03 00:13:00,68.9,64.7,0.00,North,0,0.0,0.0,86,0.00,,,0.00,WUHU21623XXSP,2013-06-03 04:13:00,
2013-06-03 00:18:00,68.9,64.5,0.00,North,0,0.0,0.0,86,0.00,,,0.00,WUHU21623XXSP,2013-06-03 04:18:00,
2013-06-03 00:23:00,68.9,64.5,0.00,North,0,0.0,0.0,86,0.00,,,0.00,WUHU21623XXSP,2013-06-03 04:23:00,
2013-06-03 00:28:00,68.9,64.5,0.00,North,0,0.0,0.0,86,0.00,,,0.00,WUHU21623XXSP,2013-06-03 04:28:00,
2013-06-03 00:33:00,68.9,64.5,0.00,North,0,0.0,0.0,86,0.00,,,0.00,WUHU21623XXSP,2013-06-03 04:33:00,
2013-06-03 00:38:00,68.9,64.5,0.00,North,0,0.0,0.0,86,0.00,,,0.00,WUHU21623XXSP,2013-06-03 04:38:00,
2013-06-03 00:43:00,68.9,64.5,0.00,North,0,0.0,0.0,86,0.00,,,0.00,WUHU21623XXSP,2013-06-03 04:43:00,
2013-06-03 00:48:00,68.9,64.5,0.00,North,0,0.0,0.0,86,0.00,,,0.00,WUHU21623XXSP,2013-06-03 04:48:00,
2013-06-03 00:53:00,68.9,64.5,0.00,North,0,0.0,0.0,86,0.00,,,0.00,WUHU21623XXSP,2013-06-03 04:53:00,
2013-06-03 00:58:00,68.9,64.5,0.00,North,0,0.0,0.0,86,0.00,,,0.00,WUHU21623XXSP,2013-06-03 04:58:00,
2013-06-03 01:03:00,68.9,64.5,0.00,North,0,0.0,0.0,86,0.00,,,0.00,WUHU21623XXSP,2013-06-03 05:03:00,
2013-06-03 01:08:00,68.9,64.5,0.00,North,0,0.0,0.0,86,0.00,,,0.00,WUHU21623XXSP,2013-06-03 05:08:00,
2013-06-03 01:13:00,68.9,64.3,0.00,North,0,0.0,0.0,86,0.00,,,0.00,WUHU21623XXSP,2013-06-03 05:13:00,
2013-06-03 01:19:00,68.7,64.3,0.00,North,0,0.0,0.0,86,0.00,,,0.00,WUHU21623XXSP,2013-06-03 05:19:00,
2013-06-03 01:24:00,68.7,64.3,0.00,North,0,0.0,0.0,86,0.00,,,0.00,WUHU21623XXSP,2013-06-03 05:24:00,
2013-06-03 01:29:00,68.7,64.3,0.00,North,0,0.0,0.0,86,0.00,,,0.00,WUHU21623XXSP,2013-06-03 05:29:00,
2013-06-03 01:34:00,68.7,64.3,0.00,North,0,0.0,0.0,86,0.00,,,0.00,WUHU21623XXSP,2013-06-03 05:34:00,
2013-06-03 01:39:00,68.7,64.3,0.00,North,0,0.0,0.0,86,0.00,,,0.00,WUHU21623XXSP,2013-06-03 05:39:00,
2013-06-03 01:44:00,68.7,64.3,0.00,North,0,0.0,0.0,86,0.00,,,0.00,WUHU21623XXSP,2013-06-03 05:44:00,
2013-06-03 01:49:00,68.7,64.3,0.00,North,0,0.0,0.0,87,0.00,,,0.00,WUHU21623XXSP,2013-06-03 05:49:00,
2013-06-03 01:54:00,68.7,64.3,0.00,North,0,0.0,0.0,87,0.00,,,0.00,WUHU21623XXSP,2013-06-03 05:54:00,
2013-06-03 01:59:00,68.7,64.3,0.00,North,0,0.0,0.0,86,0.00,,,0.00,WUHU21623XXSP,2013-06-03 05:59:00,
2013-06-03 02:04:00,68.7,64.7,0.00,North,0,0.0,0.0,87,0.00,,,0.00,WUHU21623XXSP,2013-06-03 06:04:00,
2013-06-03 02:09:00,68.7,64.7,0.00,North,0,0.0,0.0,87,0.00,,,0.00,WUHU21623XXSP,2013-06-03 06:09:00,
2013-06-03 02:14:00,68.7,64.7,0.00,North,0,0.0,0.0,87,0.00,,,0.00,WUHU21623XXSP,2013-06-03 06:14:00,
2013-06-03 02:19:00,68.7,64.7,0.00,North,0,0.0,0.0,87,0.00,,,0.00,WUHU21623XXSP,2013-06-03 06:19:00,
2013-06-03 02:24:00,68.5,64.7,0.00,North,0,0.0,0.0,87,0.00,,,0.00,WUHU21623XXSP,2013-06-03 06:24:00,
2013-06-03 02:29:00,68.5,64.5,0.00,North,0,0.0,0.0,87,0.02,,,0.02,WUHU21623XXSP,2013-06-03 06:29:00,
2013-06-03 02:34:00,68.5,64.5,0.00,North,0,0.0,0.0,87,0.08,,,0.08,WUHU21623XXSP,2013-06-03 06:34:00,
2013-06-03 02:39:00,68.5,64.5,0.00,North,0,0.0,0.0,87,0.08,,,0.08,WUHU21623XXSP,2013-06-03 06:39:00,
2013-06-03 02:44:00,68.4,64.5,0.00,North,0,0.0,0.0,87,0.08,,,0.08,WUHU21623XXSP,2013-06-03 06:44:00,
2013-06-03 02:49:00,68.4,64.3,0.00,North,0,0.0,0.0,87,0.08,,,0.08,WUHU21623XXSP,2013-06-03 06:49:00,
2013-06-03 02:54:00,68.4,64.3,0.00,North,0,0.0,0.0,87,0.08,,,0.08,WUHU21623XXSP,2013-06-03 06:54:00,
2013-06-03 02:59:00,68.4,64.3,0.00,North,0,0.0,0.0,87,0.16,,,0.16,WUHU21623XXSP,2013-06-03 06:59:00,
2013-06-03 03:04:00,68.2,64.1,0.00,North,0,0.0,0.0,87,0.16,,,0.16,WUHU21623XXSP,2013-06-03 07:04:00,
2013-06-03 03:09:00,68.2,64.1,0.00,North,0,0.0,0.0,87,0.24,,,0.24,WUHU21623XXSP,2013-06-03 07:09:00,
2013-06-03 03:14:00,68.2,64.1,0.00,North,0,0.0,0.0,87,0.29,,,0.24,WUHU21623XXSP,2013-06-03 07:14:00,
2013-06-03 03:19:00,68.2,64.1,0.00,North,0,0.0,0.0,87,0.29,,,0.28,WUHU21623XXSP,2013-06-03 07:19:00,
2013-06-03 03:24:00,68.2,64.1,0.00,North,0,0.0,0.0,87,0.26,,,0.28,WUHU21623XXSP,2013-06-03 07:24:00,
2013-06-03 03:29:00,68.2,64.1,0.00,North,0,0.0,0.0,88,0.22,,,0.28,WUHU21623XXSP,2013-06-03 07:29:00,
2013-06-03 03:34:00,68.2,64.5,0.00,North,0,0.0,0.0,88,0.24,,,0.32,WUHU21623XXSP,2013-06-03 07:34:00,
2013-06-03 03:39:00,68.2,64.5,0.00,North,0,0.0,0.0,88,0.24,,,0.32,WUHU21623XXSP,2013-06-03 07:39:00,
2013-06-03 03:44:00,68.2,64.5,0.00,North,0,0.0,0.0,88,0.24,,,0.32,WUHU21623XXSP,2013-06-03 07:44:00,
2013-06-03 03:49:00,68.2,64.5,0.00,North,0,0.0,0.0,88,0.24,,,0.32,WUHU21623XXSP,2013-06-03 07:49:00,
2013-06-03 03:54:00,68.0,64.5,0.00,North,0,0.0,0.0,88,0.24,,,0.32,WUHU21623XXSP,2013-06-03 07:54:00,
2013-06-03 03:59:00,68.0,64.3,0.00,North,0,0.0,0.0,88,0.16,,,0.32,WUHU21623XXSP,2013-06-03 07:59:00,
2013-06-03 04:04:00,67.8,64.1,0.00,North,0,0.0,0.0,88,0.16,,,0.32,WUHU21623XXSP,2013-06-03 08:04:00,
2013-06-03 04:09:00,67.8,64.1,0.00,North,0,0.0,0.0,88,0.08,,,0.32,WUHU21623XXSP,2013-06-03 08:09:00,
2013-06-03 04:14:00,67.8,64.1,0.00,North,0,0.0,0.0,88,0.04,,,0.32,WUHU21623XXSP,2013-06-03 08:14:00,
2013-06-03 04:19:00,67.8,64.1,0.00,North,0,0.0,0.0,88,0.04,,,0.32,WUHU21623XXSP,2013-06-03 08:19:00,
2013-06-03 04:24:00,67.8,64.1,0.00,North,0,0.0,0.0,88,0.04,,,0.32,WUHU21623XXSP,2013-06-03 08:24:00,
2013-06-03 04:29:00,67.8,64.1,0.00,North,0,0.0,0.0,88,0.00,,,0.32,WUHU21623XXSP,2013-06-03 08:29:00,
2013-06-03 04:34:00,67.6,63.9,0.00,North,0,0.0,0.0,88,0.00,,,0.32,WUHU21623XXSP,2013-06-03 08:34:00,
2013-06-03 04:39:00,67.6,64.1,0.00,North,0,0.0,0.0,88,0.00,,,0.32,WUHU21623XXSP,2013-06-03 08:39:00,
2013-06-03 04:44:00,67.6,63.9,0.00,North,0,0.0,0.0,88,0.00,,,0.32,WUHU21623XXSP,2013-06-03 08:44:00,
2013-06-03 04:49:00,67.6,63.9,0.00,North,0,0.0,0.0,88,0.00,,,0.32,WUHU21623XXSP,2013-06-03 08:49:00,
2013-06-03 04:54:00,67.6,63.9,0.00,North,0,0.0,0.0,88,0.00,,,0.32,WUHU21623XXSP,2013-06-03 08:54:00,
2013-06-03 04:59:00,67.6,63.9,0.00,North,0,0.0,0.0,88,0.00,,,0.32,WUHU21623XXSP,2013-06-03 08:59:00,
2013-06-03 05:04:00,67.6,63.9,0.00,North,0,0.0,0.0,88,0.00,,,0.32,WUHU21623XXSP,2013-06-03 09:04:00,
2013-06-03 05:09:00,67.6,63.9,0.00,North,0,0.0,0.0,88,0.00,,,0.32,WUHU21623XXSP,2013-06-03 09:09:00,
2013-06-03 05:14:00,67.6,63.9,0.00,North,0,0.0,0.0,88,0.00,,,0.32,WUHU21623XXSP,2013-06-03 09:14:00,
2013-06-03 05:19:00,67.6,63.9,0.00,North,0,0.0,0.0,88,0.00,,,0.32,WUHU21623XXSP,2013-06-03 09:19:00,
2013-06-03 05:24:00,67.6,63.9,0.00,North,0,0.0,0.0,88,0.00,,,0.32,WUHU21623XXSP,2013-06-03 09:24:00,
2013-06-03 05:29:00,67.6,63.9,0.00,North,0,0.0,0.0,88,0.00,,,0.32,WUHU21623XXSP,2013-06-03 09:29:00,
2013-06-03 05:34:00,67.6,63.9,0.00,North,0,0.0,0.0,88,0.00,,,0.32,WUHU21623XXSP,2013-06-03 09:34:00,
2013-06-03 05:39:00,67.6,63.9,0.00,North,0,0.0,0.0,88,0.00,,,0.32,WUHU21623XXSP,2013-06-03 09:39:00,
2013-06-03 05:44:00,67.6,63.9,0.00,North,0,0.0,0.0,88,0.00,,,0.32,WUHU21623XXSP,2013-06-03 09:44:00,
2013-06-03 05:49:00,67.6,63.9,0.00,North,0,0.0,0.0,88,0.00,,,0.32,WUHU21623XXSP,2013-06-03 09:49:00,
2013-06-03 05:54:00,67.6,63.9,0.00,North,0,0.0,0.0,88,0.00,,,0.32,WUHU21623XXSP,2013-06-03 09:54:00,
2013-06-03 05:59:00,67.6,63.9,0.00,North,0,0.0,0.0,88,0.00,,,0.32,WUHU21623XXSP,2013-06-03 09:59:00,
2013-06-03 06:04:00,67.6,63.9,0.00,North,0,0.0,0.0,88,0.00,,,0.32,WUHU21623XXSP,2013-06-03 10:04:00,
2013-06-03 06:09:00,67.6,63.9,0.00,North,0,0.0,0.0,88,0.00,,,0.32,WUHU21623XXSP,2013-06-03 10:09:00,
2013-06-03 06:14:00,67.6,63.9,0.00,North,0,0.0,0.0,88,0.04,,,0.32,WUHU21623XXSP,2013-06-03 10:14:00,
2013-06-03 06:19:00,67.6,63.9,0.00,North,0,0.0,0.0,88,0.04,,,0.36,WUHU21623XXSP,2013-06-03 10:19:00,
2013-06-03 06:24:00,67.6,63.9,0.00,North,0,0.0,0.0,88,0.08,,,0.40,WUHU21623XXSP,2013-06-03 10:24:00,
2013-06-03 06:29:00,67.6,63.9,0.00,North,0,0.0,0.0,88,0.08,,,0.40,WUHU21623XXSP,2013-06-03 10:29:00,
2013-06-03 06:34:00,67.6,63.9,0.00,North,0,0.0,0.0,88,0.08,,,0.40,WUHU21623XXSP,2013-06-03 10:34:00,
2013-06-03 06:39:00,67.6,63.9,0.00,North,0,0.0,0.0,88,0.08,,,0.40,WUHU21623XXSP,2013-06-03 10:39:00,
2013-06-03 06:44:00,67.6,63.9,0.00,North,0,0.0,0.0,88,0.08,,,0.40,WUHU21623XXSP,2013-06-03 10:44:00,
2013-06-03 06:49:00,67.6,63.9,0.00,North,0,0.0,0.0,88,0.08,,,0.40,WUHU21623XXSP,2013-06-03 10:49:00,
2013-06-03 06:54:00,67.6,63.9,0.00,North,0,0.0,0.0,88,0.08,,,0.40,WUHU21623XXSP,2013-06-03 10:54:00,
2013-06-03 06:59:00,67.6,63.9,0.00,North,0,0.0,0.0,88,0.08,,,0.40,WUHU21623XXSP,2013-06-03 10:59:00,
2013-06-03 07:04:00,67.6,63.9,0.00,North,0,0.0,0.0,88,0.08,,,0.40,WUHU21623XXSP,2013-06-03 11:04:00,
2013-06-03 07:09:00,67.8,64.1,0.00,North,0,0.0,0.0,88,0.08,,,0.40,WUHU21623XXSP,2013-06-03 11:09:00,
2013-06-03 07:14:00,67.8,64.1,0.00,North,0,0.0,0.0,88,0.04,,,0.40,WUHU21623XXSP,2013-06-03 11:14:00,
2013-06-03 07:19:00,67.8,64.1,0.00,North,0,0.0,0.0,88,0.04,,,0.40,WUHU21623XXSP,2013-06-03 11:19:00,
2013-06-03 07:24:00,67.8,64.1,0.00,North,0,0.0,0.0,88,0.00,,,0.40,WUHU21623XXSP,2013-06-03 11:24:00,
2013-06-03 07:29:00,67.8,64.1,0.00,North,0,0.0,0.0,88,0.00,,,0.40,WUHU21623XXSP,2013-06-03 11:29:00,
2013-06-03 07:34:00,67.8,64.1,0.00,North,0,0.0,0.0,88,0.00,,,0.40,WUHU21623XXSP,2013-06-03 11:34:00,
2013-06-03 07:39:00,67.8,64.1,0.00,North,0,0.0,0.0,88,0.00,,,0.40,WUHU21623XXSP,2013-06-03 11:39:00,
2013-06-03 07:44:00,67.8,64.1,0.00,North,0,0.0,0.0,88,0.00,,,0.40,WUHU21623XXSP,2013-06-03 11:44:00,
2013-06-03 07:49:00,67.8,64.1,0.00,North,0,0.0,0.0,88,0.00,,,0.40,WUHU21623XXSP,2013-06-03 11:49:00,
2013-06-03 07:54:00,68.2,64.8,0.00,North,0,0.0,0.0,89,0.00,,,0.40,WUHU21623XXSP,2013-06-03 11:54:00,
2013-06-03 07:59:00,68.2,64.8,0.00,North,0,0.0,0.0,89,0.00,,,0.40,WUHU21623XXSP,2013-06-03 11:59:00,
2013-06-03 08:04:00,68.4,65.0,0.00,North,0,0.0,0.0,89,0.00,,,0.40,WUHU21623XXSP,2013-06-03 12:04:00,
2013-06-03 08:09:00,68.4,65.0,0.00,North,0,0.0,0.0,89,0.00,,,0.40,WUHU21623XXSP,2013-06-03 12:09:00,
2013-06-03 08:14:00,68.5,65.1,0.00,North,0,0.0,0.0,89,0.00,,,0.40,WUHU21623XXSP,2013-06-03 12:14:00,
2013-06-03 08:19:00,68.5,65.1,0.00,North,0,0.0,0.0,89,0.00,,,0.40,WUHU21623XXSP,2013-06-03 12:19:00,
2013-06-03 08:24:00,68.7,65.3,0.00,North,0,0.0,0.0,89,0.00,,,0.40,WUHU21623XXSP,2013-06-03 12:24:00,
2013-06-03 08:29:00,68.9,65.5,0.00,North,0,0.0,0.0,89,0.00,,,0.40,WUHU21623XXSP,2013-06-03 12:29:00,
2013-06-03 08:34:00,68.9,65.5,0.00,North,0,0.0,0.0,89,0.00,,,0.40,WUHU21623XXSP,2013-06-03 12:34:00,
2013-06-03 08:39:00,69.1,65.7,0.00,North,0,0.0,0.0,89,0.00,,,0.40,WUHU21623XXSP,2013-06-03 12:39:00,
2013-06-03 08:44:00,69.1,65.7,0.00,North,0,0.0,0.0,89,0.00,,,0.40,WUHU21623XXSP,2013-06-03 12:44:00,
2013-06-03 08:49:00,69.4,66.0,0.00,North,0,0.0,0.0,89,0.00,,,0.40,WUHU21623XXSP,2013-06-03 12:49:00,
2013-06-03 08:54:00,69.6,66.2,0.00,North,0,0.0,0.0,89,0.00,,,0.40,WUHU21623XXSP,2013-06-03 12:54:00,
2013-06-03 08:59:00,69.6,66.2,0.00,North,0,0.0,0.0,89,0.00,,,0.40,WUHU21623XXSP,2013-06-03 12:59:00,
2013-06-03 09:04:00,69.6,66.2,0.00,North,0,0.0,0.0,89,0.00,,,0.40,WUHU21623XXSP,2013-06-03 13:04:00,
2013-06-03 09:09:00,69.8,66.2,0.00,North,0,0.0,0.0,89,0.00,,,0.40,WUHU21623XXSP,2013-06-03 13:09:00,
2013-06-03 09:14:00,70.0,66.6,0.00,North,0,0.0,0.0,89,0.00,,,0.40,WUHU21623XXSP,2013-06-03 13:14:00,
2013-06-03 09:19:00,70.0,66.6,0.00,North,0,0.0,0.0,89,0.00,,,0.40,WUHU21623XXSP,2013-06-03 13:19:00,
2013-06-03 09:24:00,70.2,66.8,0.00,North,0,0.0,0.0,89,0.00,,,0.40,WUHU21623XXSP,2013-06-03 13:24:00,
2013-06-03 09:29:00,70.3,66.9,0.00,North,0,0.0,0.0,89,0.00,,,0.40,WUHU21623XXSP,2013-06-03 13:29:00,
2013-06-03 09:34:00,70.5,67.1,0.00,North,0,0.0,0.0,89,0.00,,,0.40,WUHU21623XXSP,2013-06-03 13:34:00,
2013-06-03 09:39:00,70.5,67.1,0.00,North,0,0.0,0.0,89,0.00,,,0.40,WUHU21623XXSP,2013-06-03 13:39:00,
2013-06-03 09:44:00,70.7,67.1,0.00,North,0,0.0,0.0,89,0.00,,,0.40,WUHU21623XXSP,2013-06-03 13:44:00,
2013-06-03 09:49:00,70.7,67.3,0.00,North,0,0.0,0.0,89,0.00,,,0.40,WUHU21623XXSP,2013-06-03 13:49:00,
2013-06-03 09:54:00,70.9,67.5,0.00,North,0,0.0,0.0,89,0.00,,,0.40,WUHU21623XXSP,2013-06-03 13:54:00,
2013-06-03 09:59:00,70.9,67.5,0.00,North,0,0.0,0.0,89,0.00,,,0.40,WUHU21623XXSP,2013-06-03 13:59:00,
2013-06-03 10:04:00,70.9,67.5,0.00,North,0,0.0,0.0,89,0.00,,,0.40,WUHU21623XXSP,2013-06-03 14:04:00,
2013-06-03 10:09:00,71.2,67.8,0.00,North,0,0.0,0.0,89,0.00,,,0.40,WUHU21623XXSP,2013-06-03 14:09:00,
2013-06-03 10:14:00,71.2,67.8,0.00,North,0,0.0,0.0,89,0.00,,,0.40,WUHU21623XXSP,2013-06-03 14:14:00,
2013-06-03 10:19:00,71.4,67.8,0.00,North,0,0.0,0.0,89,0.00,,,0.40,WUHU21623XXSP,2013-06-03 14:19:00,
2013-06-03 10:24:00,72.0,68.6,0.00,North,0,0.0,0.0,89,0.00,,,0.40,WUHU21623XXSP,2013-06-03 14:24:00,
2013-06-03 10:29:00,72.1,68.7,0.00,North,0,0.0,0.0,89,0.00,,,0.40,WUHU21623XXSP,2013-06-03 14:29:00,
2013-06-03 10:34:00,72.3,68.9,0.00,North,0,0.0,0.0,89,0.00,,,0.40,WUHU21623XXSP,2013-06-03 14:34:00,
2013-06-03 10:39:00,72.5,69.1,0.00,North,0,0.0,0.0,89,0.00,,,0.40,WUHU21623XXSP,2013-06-03 14:39:00,
2013-06-03 10:44:00,72.7,69.3,0.00,North,0,0.0,0.0,89,0.00,,,0.40,WUHU21623XXSP,2013-06-03 14:44:00,
2013-06-03 10:49:00,72.9,69.5,0.00,North,0,0.0,0.0,89,0.00,,,0.40,WUHU21623XXSP,2013-06-03 14:49:00,
2013-06-03 10:54:00,73.2,69.5,0.00,North,0,0.0,0.0,88,0.00,,,0.40,WUHU21623XXSP,2013-06-03 14:54:00,
2013-06-03 10:59:00,73.6,69.8,0.00,North,0,0.0,0.0,88,0.00,,,0.40,WUHU21623XXSP,2013-06-03 14:59:00,
2013-06-03 11:04:00,73.8,69.8,0.00,North,0,0.0,0.0,88,0.00,,,0.40,WUHU21623XXSP,2013-06-03 15:04:00,
2013-06-03 11:09:00,73.9,70.5,0.00,North,0,0.0,0.0,88,0.00,,,0.40,WUHU21623XXSP,2013-06-03 15:09:00,
2013-06-03 11:14:00,74.1,70.4,0.00,North,0,0.0,0.0,88,0.00,,,0.40,WUHU21623XXSP,2013-06-03 15:14:00,
2013-06-03 11:19:00,74.3,70.4,0.00,North,0,0.0,0.0,88,0.00,,,0.40,WUHU21623XXSP,2013-06-03 15:19:00,
2013-06-03 11:24:00,74.3,70.6,0.00,North,0,0.0,0.0,88,0.00,,,0.40,WUHU21623XXSP,2013-06-03 15:24:00,
2013-06-03 11:29:00,74.1,70.4,0.00,North,0,0.0,0.0,88,0.00,,,0.40,WUHU21623XXSP,2013-06-03 15:29:00,
2013-06-03 11:34:00,74.1,70.4,0.00,North,0,0.0,0.0,88,0.00,,,0.40,WUHU21623XXSP,2013-06-03 15:34:00,
2013-06-03 11:39:00,74.3,70.2,0.00,North,0,0.0,0.0,87,0.00,,,0.40,WUHU21623XXSP,2013-06-03 15:39:00,
2013-06-03 11:44:00,74.5,70.4,0.00,North,0,0.0,0.0,87,0.00,,,0.40,WUHU21623XXSP,2013-06-03 15:44:00,
2013-06-03 11:49:00,74.3,70.2,0.00,North,0,0.0,0.0,87,0.00,,,0.40,WUHU21623XXSP,2013-06-03 15:49:00,
2013-06-03 11:54:00,74.3,70.2,0.00,North,0,0.0,0.0,87,0.00,,,0.40,WUHU21623XXSP,2013-06-03 15:54:00,
2013-06-03 11:59:00,74.5,70.4,0.00,North,0,0.0,0.0,87,0.00,,,0.40,WUHU21623XXSP,2013-06-03 15:59:00,
2013-06-03 12:04:00,74.3,70.2,0.00,North,0,0.0,0.0,87,0.00,,,0.40,WUHU21623XXSP,2013-06-03 16:04:00,
2013-06-03 12:09:00,74.5,70.1,0.00,North,0,0.0,0.0,86,0.00,,,0.40,WUHU21623XXSP,2013-06-03 16:09:00,
2013-06-03 12:14:00,74.5,70.1,0.00,North,0,0.0,0.0,86,0.00,,,0.40,WUHU21623XXSP,2013-06-03 16:14:00,
2013-06-03 12:19:00,74.7,70.1,0.00,North,0,0.0,0.0,86,0.00,,,0.40,WUHU21623XXSP,2013-06-03 16:19:00,
2013-06-03 12:24:00,74.5,70.1,0.00,North,0,0.0,0.0,86,0.00,,,0.40,WUHU21623XXSP,2013-06-03 16:24:00,
2013-06-03 12:29:00,74.7,69.9,0.00,North,0,0.0,0.0,85,0.00,,,0.40,WUHU21623XXSP,2013-06-03 16:29:00,
2013-06-03 12:34:00,74.8,69.9,0.00,North,0,0.0,0.0,85,0.00,,,0.40,WUHU21623XXSP,2013-06-03 16:34:00,
2013-06-03 12:39:00,74.8,69.7,0.00,North,0,0.0,0.0,84,0.00,,,0.40,WUHU21623XXSP,2013-06-03 16:39:00,
2013-06-03 12:44:00,75.0,69.9,0.00,North,0,0.0,0.0,83,0.00,,,0.40,WUHU21623XXSP,2013-06-03 16:44:00,
2013-06-03 12:49:00,75.0,69.6,0.00,North,0,0.0,0.0,83,0.00,,,0.40,WUHU21623XXSP,2013-06-03 16:49:00,
2013-06-03 12:54:00,75.0,69.4,0.00,North,0,0.0,0.0,83,0.00,,,0.40,WUHU21623XXSP,2013-06-03 16:54:00,
2013-06-03 12:59:00,75.0,69.6,0.00,North,0,0.0,0.0,83,0.00,,,0.40,WUHU21623XXSP,2013-06-03 16:59:00,
2013-06-03 13:04:00,75.0,69.6,0.00,North,0,0.0,0.0,83,0.00,,,0.40,WUHU21623XXSP,2013-06-03 17:04:00,
2013-06-03 13:09:00,75.0,69.6,0.00,North,0,0.0,0.0,83,0.00,,,0.40,WUHU21623XXSP,2013-06-03 17:09:00,
2013-06-03 13:14:00,75.0,69.6,0.00,North,0,0.0,0.0,83,0.00,,,0.40,WUHU21623XXSP,2013-06-03 17:14:00,
2013-06-03 13:19:00,75.0,69.6,0.00,North,0,0.0,0.0,83,0.00,,,0.40,WUHU21623XXSP,2013-06-03 17:19:00,
2013-06-03 13:24:00,75.4,69.6,0.00,North,0,0.0,0.0,82,0.00,,,0.40,WUHU21623XXSP,2013-06-03 17:24:00,
2013-06-03 13:29:00,75.4,69.6,0.00,North,0,0.0,0.0,82,0.00,,,0.40,WUHU21623XXSP,2013-06-03 17:29:00,
2013-06-03 13:34:00,75.4,69.2,0.00,North,0,0.0,0.0,81,0.00,,,0.40,WUHU21623XXSP,2013-06-03 17:34:00,
2013-06-03 13:39:00,75.4,69.2,0.00,North,0,0.0,0.0,81,0.00,,,0.40,WUHU21623XXSP,2013-06-03 17:39:00,
2013-06-03 13:44:00,75.4,69.2,0.00,North,0,0.0,0.0,81,0.00,,,0.40,WUHU21623XXSP,2013-06-03 17:44:00,
2013-06-03 13:49:00,75.6,69.4,0.00,North,0,0.0,0.0,81,0.00,,,0.40,WUHU21623XXSP,2013-06-03 17:49:00,
2013-06-03 13:54:00,75.7,69.5,0.00,North,0,0.0,0.0,81,0.00,,,0.40,WUHU21623XXSP,2013-06-03 17:54:00,
2013-06-03 13:59:00,75.7,69.5,0.00,North,0,0.0,0.0,81,0.00,,,0.40,WUHU21623XXSP,2013-06-03 17:59:00,
2013-06-03 14:04:00,75.7,69.5,0.00,North,0,0.0,0.0,81,0.00,,,0.40,WUHU21623XXSP,2013-06-03 18:04:00,
2013-06-03 14:09:00,75.7,69.2,0.00,North,0,0.0,0.0,80,0.00,,,0.40,WUHU21623XXSP,2013-06-03 18:09:00,
2013-06-03 14:14:00,75.7,68.8,0.00,North,0,0.0,0.0,79,0.00,,,0.40,WUHU21623XXSP,2013-06-03 18:14:00,
2013-06-03 14:19:00,76.1,69.0,0.00,North,0,0.0,0.0,79,0.00,,,0.40,WUHU21623XXSP,2013-06-03 18:19:00,
2013-06-03 14:24:00,76.1,69.1,0.00,North,0,0.0,0.0,79,0.00,,,0.40,WUHU21623XXSP,2013-06-03 18:24:00,
2013-06-03 14:29:00,76.3,68.9,0.00,North,0,0.0,0.0,78,0.00,,,0.40,WUHU21623XXSP,2013-06-03 18:29:00,
2013-06-03 14:34:00,76.6,69.2,0.00,North,0,0.0,0.0,78,0.00,,,0.40,WUHU21623XXSP,2013-06-03 18:34:00,
2013-06-03 14:39:00,76.6,68.9,0.00,North,0,0.0,0.0,77,0.00,,,0.40,WUHU21623XXSP,2013-06-03 18:39:00,
2013-06-03 14:44:00,76.8,68.9,0.00,North,0,0.0,0.0,77,0.00,,,0.40,WUHU21623XXSP,2013-06-03 18:44:00,
2013-06-03 14:49:00,77.0,69.0,0.00,North,0,0.0,0.0,77,0.00,,,0.40,WUHU21623XXSP,2013-06-03 18:49:00,
2013-06-03 14:54:00,77.5,69.3,0.00,North,0,0.0,0.0,76,0.00,,,0.40,WUHU21623XXSP,2013-06-03 18:54:00,
2013-06-03 14:59:00,77.5,69.3,0.00,North,0,0.0,0.0,76,0.00,,,0.40,WUHU21623XXSP,2013-06-03 18:59:00,
2013-06-03 15:04:00,77.2,69.2,0.00,North,0,0.0,0.0,76,0.00,,,0.40,WUHU21623XXSP,2013-06-03 19:04:00,
2013-06-03 15:09:00,77.0,69.2,0.00,North,0,0.0,0.0,77,0.00,,,0.40,WUHU21623XXSP,2013-06-03 19:09:00,
2013-06-03 15:14:00,76.8,69.0,0.00,North,0,0.0,0.0,77,0.00,,,0.40,WUHU21623XXSP,2013-06-03 19:14:00,
2013-06-03 15:19:00,76.8,69.0,0.00,North,0,0.0,0.0,77,0.00,,,0.40,WUHU21623XXSP,2013-06-03 19:19:00,
2013-06-03 15:24:00,76.8,69.0,0.00,North,0,0.0,0.0,77,0.00,,,0.40,WUHU21623XXSP,2013-06-03 19:24:00,
2013-06-03 15:29:00,76.6,68.9,0.00,North,0,0.0,0.0,77,0.00,,,0.40,WUHU21623XXSP,2013-06-03 19:29:00,
2013-06-03 15:34:00,76.6,69.2,0.00,North,0,0.0,0.0,78,0.00,,,0.40,WUHU21623XXSP,2013-06-03 19:34:00,
2013-06-03 15:39:00,76.5,69.1,0.00,North,0,0.0,0.0,78,0.00,,,0.40,WUHU21623XXSP,2013-06-03 19:39:00,
2013-06-03 15:44:00,76.5,69.2,0.00,North,0,0.0,0.0,78,0.00,,,0.40,WUHU21623XXSP,2013-06-03 19:44:00,
2013-06-03 15:49:00,76.3,69.1,0.00,North,0,0.0,0.0,79,0.00,,,0.40,WUHU21623XXSP,2013-06-03 19:49:00,
2013-06-03 15:54:00,76.3,69.3,0.00,North,0,0.0,0.0,79,0.00,,,0.40,WUHU21623XXSP,2013-06-03 19:54:00,
2013-06-03 15:59:00,76.3,69.3,0.00,North,0,0.0,0.0,79,0.00,,,0.40,WUHU21623XXSP,2013-06-03 19:59:00,
2013-06-03 16:04:00,76.3,69.3,0.00,North,0,0.0,0.0,79,0.00,,,0.40,WUHU21623XXSP,2013-06-03 20:04:00,
2013-06-03 16:09:00,76.5,68.7,0.00,North,0,0.0,0.0,77,0.00,,,0.40,WUHU21623XXSP,2013-06-03 20:09:00,
2013-06-03 16:14:00,76.6,68.9,0.00,North,0,0.0,0.0,77,0.00,,,0.40,WUHU21623XXSP,2013-06-03 20:14:00,
2013-06-03 16:19:00,76.5,68.7,0.00,North,0,0.0,0.0,77,0.00,,,0.40,WUHU21623XXSP,2013-06-03 20:19:00,
2013-06-03 16:24:00,76.3,68.5,0.00,North,0,0.0,0.0,78,0.00,,,0.40,WUHU21623XXSP,2013-06-03 20:24:00,
2013-06-03 16:29:00,76.3,68.5,0.00,North,0,0.0,0.0,77,0.00,,,0.40,WUHU21623XXSP,2013-06-03 20:29:00,
2013-06-03 16:34:00,76.3,68.5,0.00,North,0,0.0,0.0,77,0.00,,,0.40,WUHU21623XXSP,2013-06-03 20:34:00,
2013-06-03 16:39:00,76.1,68.5,0.00,North,0,0.0,0.0,77,0.00,,,0.40,WUHU21623XXSP,2013-06-03 20:39:00,
2013-06-03 16:44:00,75.9,68.8,0.00,North,0,0.0,0.0,78,0.00,,,0.40,WUHU21623XXSP,2013-06-03 20:44:00,
2013-06-03 16:49:00,75.9,68.6,0.00,North,0,0.0,0.0,78,0.00,,,0.40,WUHU21623XXSP,2013-06-03 20:49:00,
2013-06-03 16:54:00,75.7,68.8,0.00,North,0,0.0,0.0,79,0.00,,,0.40,WUHU21623XXSP,2013-06-03 20:54:00,
2013-06-03 16:59:00,75.7,68.8,0.00,North,0,0.0,0.0,79,0.00,,,0.40,WUHU21623XXSP,2013-06-03 20:59:00,
2013-06-03 17:04:00,75.7,68.8,0.00,North,0,0.0,0.0,79,0.00,,,0.40,WUHU21623XXSP,2013-06-03 21:04:00,
2013-06-03 17:09:00,75.7,68.8,0.00,North,0,0.0,0.0,79,0.00,,,0.40,WUHU21623XXSP,2013-06-03 21:09:00,
2013-06-03 17:14:00,75.6,69.0,0.00,North,0,0.0,0.0,80,0.00,,,0.40,WUHU21623XXSP,2013-06-03 21:14:00,
2013-06-03 17:19:00,75.6,69.0,0.00,North,0,0.0,0.0,80,0.00,,,0.40,WUHU21623XXSP,2013-06-03 21:19:00,
2013-06-03 17:24:00,75.6,69.0,0.00,North,0,0.0,0.0,81,0.00,,,0.40,WUHU21623XXSP,2013-06-03 21:24:00,
2013-06-03 17:29:00,75.6,69.4,0.00,North,0,0.0,0.0,81,0.00,,,0.40,WUHU21623XXSP,2013-06-03 21:29:00,
2013-06-03 17:34:00,75.6,69.4,0.00,North,0,0.0,0.0,81,0.00,,,0.40,WUHU21623XXSP,2013-06-03 21:34:00,
2013-06-03 17:39:00,75.4,69.4,0.00,North,0,0.0,0.0,81,0.00,,,0.40,WUHU21623XXSP,2013-06-03 21:39:00,
2013-06-03 17:44:00,75.6,69.4,0.00,North,0,0.0,0.0,81,0.00,,,0.40,WUHU21623XXSP,2013-06-03 21:44:00,
2013-06-03 17:49:00,75.6,69.7,0.00,North,0,0.0,0.0,82,0.00,,,0.40,WUHU21623XXSP,2013-06-03 21:49:00,
2013-06-03 17:54:00,75.6,69.7,0.00,North,0,0.0,0.0,82,0.00,,,0.40,WUHU21623XXSP,2013-06-03 21:54:00,
2013-06-03 17:59:00,75.7,69.9,0.00,North,0,0.0,0.0,82,0.00,,,0.40,WUHU21623XXSP,2013-06-03 21:59:00,
2013-06-03 18:04:00,75.7,70.2,0.00,North,0,0.0,0.0,83,0.00,,,0.40,WUHU21623XXSP,2013-06-03 22:04:00,
2013-06-03 18:09:00,75.7,70.2,0.00,North,0,0.0,0.0,83,0.00,,,0.40,WUHU21623XXSP,2013-06-03 22:09:00,
2013-06-03 18:14:00,75.7,70.1,0.00,North,0,0.0,0.0,83,0.00,,,0.40,WUHU21623XXSP,2013-06-03 22:14:00,
2013-06-03 18:19:00,75.7,70.2,0.00,North,0,0.0,0.0,83,0.00,,,0.40,WUHU21623XXSP,2013-06-03 22:19:00,
2013-06-03 18:24:00,75.7,70.2,0.00,North,0,0.0,0.0,83,0.00,,,0.40,WUHU21623XXSP,2013-06-03 22:24:00,
2013-06-03 18:29:00,75.7,70.6,0.00,North,0,0.0,0.0,84,0.00,,,0.40,WUHU21623XXSP,2013-06-03 22:29:00,
2013-06-03 18:34:00,75.7,70.6,0.00,North,0,0.0,0.0,84,0.00,,,0.40,WUHU21623XXSP,2013-06-03 22:34:00,
2013-06-03 18:39:00,75.7,70.6,0.00,North,0,0.0,0.0,84,0.00,,,0.40,WUHU21623XXSP,2013-06-03 22:39:00,
2013-06-03 18:45:00,75.7,70.6,0.00,North,0,0.0,0.0,84,0.00,,,0.40,WUHU21623XXSP,2013-06-03 22:45:00,
2013-06-03 18:50:00,75.7,70.6,0.00,North,0,0.0,0.0,84,0.00,,,0.40,WUHU21623XXSP,2013-06-03 22:50:00,
2013-06-03 18:55:00,75.7,70.6,0.00,North,0,0.0,0.0,84,0.00,,,0.40,WUHU21623XXSP,2013-06-03 22:55:00,
2013-06-03 19:00:00,75.6,70.4,0.00,North,0,0.0,0.0,84,0.00,,,0.40,WUHU21623XXSP,2013-06-03 23:00:00,
2013-06-03 19:05:00,75.6,70.1,0.00,North,0,0.0,0.0,83,0.00,,,0.40,WUHU21623XXSP,2013-06-03 23:05:00,
2013-06-03 19:10:00,75.4,70.1,0.00,North,0,0.0,0.0,83,0.00,,,0.40,WUHU21623XXSP,2013-06-03 23:10:00,
2013-06-03 19:15:00,75.4,70.1,0.00,North,0,0.0,0.0,83,0.00,,,0.40,WUHU21623XXSP,2013-06-03 23:15:00,
2013-06-03 19:20:00,75.4,69.9,0.00,North,0,0.0,0.0,83,0.00,,,0.40,WUHU21623XXSP,2013-06-03 23:20:00,
2013-06-03 19:25:00,75.4,69.6,0.00,North,0,0.0,0.0,82,0.00,,,0.40,WUHU21623XXSP,2013-06-03 23:25:00,
2013-06-03 19:30:00,75.0,67.7,0.00,North,0,0.0,0.0,78,0.00,,,0.40,WUHU21623XXSP,2013-06-03 23:30:00,
2013-06-03 19:35:00,74.3,67.0,0.00,North,0,0.0,0.0,77,0.00,,,0.40,WUHU21623XXSP,2013-06-03 23:35:00,
2013-06-03 19:40:00,73.9,65.5,0.00,North,0,0.0,0.0,75,0.00,,,0.40,WUHU21623XXSP,2013-06-03 23:40:00,
2013-06-03 19:45:00,73.6,65.6,0.00,North,0,0.0,0.0,76,0.00,,,0.40,WUHU21623XXSP,2013-06-03 23:45:00,
2013-06-03 19:50:00,73.0,65.0,0.00,North,0,0.0,0.0,76,0.00,,,0.40,WUHU21623XXSP,2013-06-03 23:50:00,
2013-06-03 19:55:00,72.7,65.0,0.00,North,0,0.0,0.0,76,0.00,,,0.40,WUHU21623XXSP,2013-06-03 23:55:00,
2013-06-03 20:00:00,72.3,64.7,0.00,North,0,0.0,0.0,77,0.00,,,0.40,WUHU21623XXSP,2013-06-04 00:00:00,
2013-06-03 20:05:00,71.8,64.5,0.00,North,0,0.0,0.0,78,0.00,,,0.40,WUHU21623XXSP,2013-06-04 00:05:00,
2013-06-03 20:10:00,71.4,64.2,0.00,North,0,0.0,0.0,78,0.00,,,0.40,WUHU21623XXSP,2013-06-04 00:10:00,
2013-06-03 20:15:00,70.9,63.6,0.00,North,0,0.0,0.0,78,0.00,,,0.40,WUHU21623XXSP,2013-06-04 00:15:00,
2013-06-03 20:20:00,70.7,63.8,0.00,North,0,0.0,0.0,79,0.00,,,0.40,WUHU21623XXSP,2013-06-04 00:20:00,
2013-06-03 20:25:00,70.2,63.7,0.00,North,0,0.0,0.0,80,0.00,,,0.40,WUHU21623XXSP,2013-06-04 00:25:00,
2013-06-03 20:30:00,69.6,63.7,0.00,North,0,0.0,0.0,81,0.00,,,0.40,WUHU21623XXSP,2013-06-04 00:30:00,
2013-06-03 20:35:00,69.6,63.8,0.00,North,0,0.0,0.0,82,0.00,,,0.40,WUHU21623XXSP,2013-06-04 00:35:00,
2013-06-03 20:40:00,69.4,63.8,0.00,North,0,0.0,0.0,82,0.00,,,0.40,WUHU21623XXSP,2013-06-04 00:40:00,
2013-06-03 20:45:00,69.4,63.7,0.00,North,0,0.0,0.0,82,0.00,,,0.40,WUHU21623XXSP,2013-06-04 00:45:00,
2013-06-03 20:50:00,69.3,63.5,0.00,North,0,0.0,0.0,82,0.00,,,0.40,WUHU21623XXSP,2013-06-04 00:50:00,
2013-06-03 20:55:00,69.1,63.7,0.00,North,0,0.0,0.0,83,0.00,,,0.40,WUHU21623XXSP,2013-06-04 00:55:00,
2013-06-03 21:00:00,69.1,63.7,0.00,North,0,0.0,0.0,84,0.00,,,0.40,WUHU21623XXSP,2013-06-04 01:00:00,
2013-06-03 21:05:00,69.1,64.0,0.00,North,0,0.0,0.0,84,0.00,,,0.40,WUHU21623XXSP,2013-06-04 01:05:00,
2013-06-03 21:10:00,68.9,64.0,0.00,North,0,0.0,0.0,84,0.00,,,0.40,WUHU21623XXSP,2013-06-04 01:10:00,
2013-06-03 21:15:00,68.9,63.8,0.00,North,0,0.0,0.0,84,0.00,,,0.40,WUHU21623XXSP,2013-06-04 01:15:00,
2013-06-03 21:20:00,68.7,63.7,0.00,North,0,0.0,0.0,84,0.00,,,0.40,WUHU21623XXSP,2013-06-04 01:20:00,
2013-06-03 21:25:00,68.7,63.7,0.00,North,0,0.0,0.0,84,0.00,,,0.40,WUHU21623XXSP,2013-06-04 01:25:00,
2013-06-03 21:30:00,68.7,64.0,0.00,North,0,0.0,0.0,85,0.00,,,0.40,WUHU21623XXSP,2013-06-04 01:30:00,
2013-06-03 21:35:00,68.5,63.8,0.00,North,0,0.0,0.0,85,0.00,,,0.40,WUHU21623XXSP,2013-06-04 01:35:00,
2013-06-03 21:40:00,68.5,63.8,0.00,North,0,0.0,0.0,85,0.00,,,0.40,WUHU21623XXSP,2013-06-04 01:40:00,
2013-06-03 21:45:00,68.5,63.8,0.00,North,0,0.0,0.0,85,0.00,,,0.40,WUHU21623XXSP,2013-06-04 01:45:00,
2013-06-03 21:50:00,68.4,63.7,0.00,North,0,0.0,0.0,85,0.00,,,0.40,WUHU21623XXSP,2013-06-04 01:50:00,
2013-06-03 21:55:00,68.4,63.7,0.00,North,0,0.0,0.0,85,0.00,,,0.40,WUHU21623XXSP,2013-06-04 01:55:00,
2013-06-03 22:00:00,68.4,63.7,0.00,North,0,0.0,0.0,85,0.00,,,0.40,WUHU21623XXSP,2013-06-04 02:00:00,
2013-06-03 22:05:00,68.2,63.7,0.00,North,0,0.0,0.0,85,0.00,,,0.40,WUHU21623XXSP,2013-06-04 02:05:00,
2013-06-03 22:10:00,68.2,63.5,0.00,North,0,0.0,0.0,85,0.00,,,0.40,WUHU21623XXSP,2013-06-04 02:10:00,
2013-06-03 22:15:00,68.2,63.5,0.00,North,0,0.0,0.0,85,0.00,,,0.40,WUHU21623XXSP,2013-06-04 02:15:00,
2013-06-03 22:20:00,68.2,63.5,0.00,North,0,0.0,0.0,85,0.00,,,0.40,WUHU21623XXSP,2013-06-04 02:20:00,
2013-06-03 22:25:00,68.2,63.5,0.00,North,0,0.0,0.0,86,0.00,,,0.40,WUHU21623XXSP,2013-06-04 02:25:00,
2013-06-03 22:30:00,68.2,63.8,0.00,North,0,0.0,0.0,86,0.00,,,0.40,WUHU21623XXSP,2013-06-04 02:30:00,
2013-06-03 22:35:00,68.2,63.8,0.00,North,0,0.0,0.0,86,0.00,,,0.40,WUHU21623XXSP,2013-06-04 02:35:00,
2013-06-03 22:40:00,68.0,63.6,0.00,North,0,0.0,0.0,86,0.00,,,0.40,WUHU21623XXSP,2013-06-04 02:40:00,
2013-06-03 22:45:00,67.8,63.5,0.00,North,0,0.0,0.0,86,0.00,,,0.40,WUHU21623XXSP,2013-06-04 02:45:00,
2013-06-03 22:50:00,67.8,63.5,0.00,North,0,0.0,0.0,86,0.00,,,0.40,WUHU21623XXSP,2013-06-04 02:50:00,
2013-06-03 22:55:00,67.8,63.5,0.00,North,0,0.0,0.0,86,0.00,,,0.40,WUHU21623XXSP,2013-06-04 02:55:00,
2013-06-03 23:00:00,67.8,63.5,0.00,North,0,0.0,0.0,86,0.00,,,0.40,WUHU21623XXSP,2013-06-04 03:00:00,
2013-06-03 23:05:00,67.8,63.5,0.00,North,0,0.0,0.0,86,0.00,,,0.40,WUHU21623XXSP,2013-06-04 03:05:00,
2013-06-03 23:10:00,67.8,63.5,0.00,North,0,0.0,0.0,86,0.00,,,0.40,WUHU21623XXSP,2013-06-04 03:10:00,
2013-06-03 23:15:00,67.8,63.5,0.00,North,0,0.0,0.0,86,0.00,,,0.40,WUHU21623XXSP,2013-06-04 03:15:00,
2013-06-03 23:20:00,67.8,63.5,0.00,North,0,0.0,0.0,86,0.00,,,0.40,WUHU21623XXSP,2013-06-04 03:20:00,
2013-06-03 23:25:00,67.8,63.5,0.00,North,0,0.0,0.0,86,0.00,,,0.40,WUHU21623XXSP,2013-06-04 03:25:00,
2013-06-03 23:30:00,67.8,63.5,0.00,North,0,0.0,0.0,86,0.00,,,0.40,WUHU21623XXSP,2013-06-04 03:30:00,
2013-06-03 23:35:00,67.8,63.5,0.00,North,0,0.0,0.0,86,0.00,,,0.40,WUHU21623XXSP,2013-06-04 03:35:00,
2013-06-03 23:40:00,67.8,63.5,0.00,North,0,0.0,0.0,86,0.00,,,0.40,WUHU21623XXSP,2013-06-04 03:40:00,
2013-06-03 23:45:00,67.8,63.8,0.00,North,0,0.0,0.0,87,0.00,,,0.40,WUHU21623XXSP,2013-06-04 03:45:00,
2013-06-03 23:50:00,67.8,63.8,0.00,North,0,0.0,0.0,87,0.00,,,0.40,WUHU21623XXSP,2013-06-04 03:50:00,
2013-06-03 23:55:00,67.8,63.8,0.00,North,0,0.0,0.0,87,0.00,,,0.40,WUHU21623XXSP,2013-06-04 03:55:00,